Погода в Верхнечеренском

Россия / Волгоградская область     49°13′04″N   42°40′43″E
В апреле 2022 года жителям России запретили посещать сайт meteo.paraplan.net по решению Генеральной прокуратуры. Аудитория сайта уменьшилась в 10 раз. Владельцы сайта не видят смысла в поддержке погодного сервера в таких условиях. Сайт будет закрыт в октябре.
темп.,
°C
ветер,
м/с
пор.,
м/с
влажн.,
%
обл.,
%
осадки,
мм/ч
давл.,
гПа
погр.,
м
30 сентября, пт
пт3000:00+15ссв227370 0.0 101720
03:00+14всв227763 0.0 101814
06:00+13всв1181100 0.0 101910
09:00+17юв1165100 0.0 1019212
12:00+21вюв1151100 0.0 1020763
15:00+22св114699 0.0 10191428
18:00+19всв335613 0.0 102025
21:00+17вюв336226 0.0 102142
1 октября, сб
сб100:00+17юв2265100 0.0 102132
03:00+16ююв336685 0.0 102162
06:00+15ююв2271100 0.0 102140
09:00+18ю3563100 0.0 1021239
12:00+22ююз4550100 0.0 1020711
15:00+24ююз46425 0.0 10191313
18:00+21ю3354100 0.0 101827
21:00+19ю4861100 0.1 1017144
2 октября, вс
вс200:00+18ююз3762100 0.1 1016133
03:00+18юз3571100 0.2 101697
06:00+17ююз347793 0.0 101564
09:00+20ююз4765100 0.0 1014297
12:00+24ю5746100 0.0 1013802
15:00+25ю6840100 0.0 10111504
18:00+21ююв41051100 0.0 1009204
21:00+21ююв71551100 0.0 1008423
3 октября, пн
пн300:00+20ююв81644100 0.0 1006511
03:00+18ююв81558100 0.0 1005486
06:00+17ююв101770100 0.0 1004592
09:00+18ююв91568100 0.0 1005617
12:00+17ююв81576100 1.3 1007928
15:00+16юз5891100 4.1 1008575
18:00+15ююз2493100 4.7 1010193
21:00+14зсз5883100 5.3 1012419
4 октября, вт
вт400:00+13зсз3580100 0.0 1014296
03:00+11з228315 0.0 101633
06:00+10ююз118193 0.0 101710
09:00+14юз3465100 0.0 1018349
12:00+17ююз345092 0.0 10191399
15:00+18ююз3546100 0.0 10191679
18:00+16сз115396 0.0 102015
21:00+15ююв2359100 0.0 102165